Regional Weather Roundup
Issued by NWS

Home | Current Version | Previous Version | Text Only | Print | Product List | Glossary On
Versions: 1 2 3 4 5 6 7 8 9 10 11 12 13 14 15 16 17 18 19 20 21 22 23 24 25 26 27 28 29 30 31 32 33 34 35 36 37 38 39 40 41 42 43 44 45 46 47 48 49 50
000
ASUS44 KLUB 282301
RWRTX
WEST TEXAS WEATHER ROUNDUP
NATIONAL WEATHER SERVICE LUBBOCK TX
600 PM CDT MON JUL 28 2014

NOTE: "FAIR" INDICATES FEW OR NO CLOUDS BELOW 12,000 FEET WITH NO
SIGNIFICANT WEATHER AND/OR OBSTRUCTIONS TO VISIBILITY.

TXZ004-006>008-010-012-014-016-OKZ002-290000-
TEXAS PANHANDLE/OKLAHOMA PANHANDLE

CITY           SKY/WX    TMP DP  RH WIND       PRES   REMARKS
AMARILLO       PTSUNNY   78  63  59 SE14      30.27F
BORGER         CLOUDY    77  57  50 S10       30.26F
CANADIAN       CLOUDY    78  58  51 SE8       30.22F
DALHART        PTSUNNY   76  64  66 SE12      30.30F
DUMAS          CLOUDY    73  64  73 SE9       30.29F
GUYMON         CLOUDY    74  60  61 S8        30.27F
HEREFORD       PTSUNNY   77  66  69 E15       30.29F
PAMPA          CLOUDY    74  57  56 SE10      30.27F
PERRYTON       PTSUNNY   76  57  51 SW7       30.27F
$$

TXZ026-029-035-045-048-290000-
SOUTHERN PANHANDLE/SOUTH PLAINS/ROLLING PLAINS

CITY           SKY/WX    TMP DP  RH WIND       PRES   REMARKS
CHILDRESS      PTSUNNY   77  59  53 VRB5      30.22F
SEMINOLE       MOSUNNY   90  57  32 E13G20    30.19F
LUBBOCK        PTSUNNY   86  65  49 E14       30.22F
PLAINVIEW      MOSUNNY   80  66  61 E10G16    30.24F
SNYDER         PTSUNNY   87  65  47 E18       30.17F
$$

TXZ052-054-060>062-072-078-127-140-154-169-290000-
PERMIAN BASIN/CONCHO VALLEY/BIG COUNTRY/EDWARDS PLATEAU

CITY           SKY/WX    TMP DP  RH WIND       PRES   REMARKS
ABILENE        PTSUNNY   90  64  42 E14       30.14F
BIG SPRING     MOSUNNY   89  62  40 NE23G30   30.17S
BRADY          MOSUNNY   97  63  32 E10       30.08F HX  98
BROWNWOOD      CLOUDY    82  70  65 NE5       30.11F
JUNCTION       MOSUNNY   98  59  27 SE15      30.06F HX  98
MIDLAND        MOSUNNY   95  61  32 E21G29    30.12F HX  95
ODESSA         MOSUNNY   95  59  30 E15G25    30.14F
SAN ANGELO     SUNNY     99  58  25 E13       30.07F HX  98
SONORA         MOSUNNY   97  55  24 E9        30.11F HX  95
SWEETWATER     PTSUNNY   89  64  42 NE20      30.19F
WINK           MOSUNNY   98  51  20 E12G22    30.07F HX  95
$$

TXZ055-058-074-075-080-082-290000-
FAR WEST/SOUTHWEST MOUNTAINS/TRANS PECOS

CITY           SKY/WX    TMP DP  RH WIND       PRES   REMARKS
ALPINE         CLOUDY    88  54  31 SE15      30.25F
DRYDEN           N/A    100  52  19 SE14      30.06F HX  97
EL PASO        PTSUNNY   92  56  29 E17       30.15F
FORT STOCKTON  MOSUNNY   96  53  23 E13G23    30.11F
GUADALUPE PASS MOSUNNY   85  52  32 NE18      30.30F
MARFA          MOSUNNY   82  57  42 SE13      30.25S
PRESIDIO       FAIR      95  58  29 MISG      30.04S THUNDER
$$

TXZ014-016-019-021>030-083-290000
TEXAS TECH WEST TEXAS MESONET/TEXAS PANHANDLE/NORTHERN SOUTH PLAINS

CITY           SKY/WX    TMP DP  RH WIND       PRES   REMARKS
ABERNATHY 5ENE   N/A     81  64  57 E13       30.25F
AMARILLO 9NNE    N/A     78  63  60 E12       30.26F
AMARILLO 7SSE    N/A     79  62  57 E13       30.28F
AMHERST 1NE      N/A     82  63  53 E16       30.24F
BOOTLEG 11WNW    N/A     79  62  56 SE14      30.31F
CANADIAN 6E      N/A     77  59  54 SE7       30.23F
CAPROCK CYN SP   N/A     73  67  81 N6        30.25F
CHILDRESS 2NNE   N/A     76  62  60 E5        30.21S
CLARENDON 2WSW   N/A     73  63  68 E6        30.27F
CLAUDE 12SW      N/A     74  64  69 E9        30.27F
DIMMITT 2NE      N/A     75  66  73 E12       30.28F
FLOYDADA 2NNE    N/A     80  64  58 E10       30.25F
FRIONA 2NE       N/A     79  63  59 E14       30.29F
GOODLETT 3W      N/A     76  60  57 NE7       30.19F
HART 3N          N/A     76  66  71 NE12      30.27F
HEREFORD 2NW     N/A     73  64  71 E9        30.29F
MEMPHIS 1NE      N/A     74  64  69 SE1       30.23F
MULESHOE 2SSW    N/A     82  61  47 E14       30.26F
OLTON 6S         N/A     82  63  53 E15       30.24F
PALO DURO SP     N/A     77  63  62 SE9       30.28F
PAMPA 2E         N/A     74  60  59 SE9       30.27F
PLAINVIEW 1S     N/A     79  65  63 E12       30.25F
SILVERTON 7ESE   N/A     71  66  84 N9        30.27F
TULIA 2ENE       N/A     72  66  81 E10       30.27F
TURKEY 2WSW      N/A     76  66  71 N9        30.23F
UMBARGER 3NNE    N/A     75  63  65 SE14      30.29F
$$

TXZ033>036-039>041-045>048-290000
TEXAS TECH WEST TEXAS MESONET/SOUTH PLAINS

CITY           SKY/WX    TMP DP  RH WIND       PRES   REMARKS
AIKEN 3WSW       N/A     79  67  65 E9        30.27F
ANTON 6SSW       N/A     84  64  50 E15       30.23F
BROWNFIELD 2S    N/A     86  61  42 E16       30.21F
DENVR CTY 7WNW   N/A     88  55  32 E16       30.21F
GAIL 2ESE        N/A     89  62  40 E14       30.16F
LAMESA 2SE       N/A     90  62  38 E15G28    30.18F
LEVELLAND 4S     N/A     85  61  44 E15       30.22F
LUBBOCK 3WNW     N/A     85  62  46 E13       30.22F
MORTON 1ENE      N/A     83  62  48 E13       30.24F
ODONNELL 1N      N/A     86  61  42 E17       30.19F
PLAINS 3N        N/A     87  60  39 E13       30.23F
RALLS 1SE        N/A     83  64  53 E14       30.23F
REESE CENTER     N/A     84  62  47 E16       30.22F
SEAGRAVES 1SW    N/A     89  60  37 E9        30.20F
SEMINOLE 2NNE    N/A     88  57  34 E12       30.19F
SLATON 2NE       N/A     84  62  47 E13       30.21F
SNYDER 3E        N/A     88  64  44 E18       30.17F
SUNDOWN 8SW      N/A     87  61  42 E14       30.22F
TAHOKA 3NNE      N/A     86  63  45 E16       30.20F
WOLFFORTH 6SSW   N/A     87  62  44 E15       30.22F
$$

TXZ031-032-036>038-042>044-290000-
TEXAS TECH WEST TEXAS MESONET/ROLLING PLAINS

CITY           SKY/WX    TMP DP  RH WIND       PRES   REMARKS
ASPERMONT 3NE    N/A     87  65  47 E10       30.16F
FLUVANNA 3WNW    N/A     87  62  43 E14       30.19F
GRAHAM 5SSW      N/A     85  62  45 E13       30.19F
GUTHRIE 10WSW    N/A     84  64  50 NE9       30.18S
HASKELL 1NW      N/A     85  63  46 E9        30.14F
JAYTON 1SSE      N/A     87  64  45 E15       30.17F
KNOX CITY 3NW    N/A     86  63  46 NE9       30.16S
LK A HENRY 1NW   N/A     89  64  43 E12       30.16F
NORTHFIELD 1S    N/A     80  65  60 E6        30.21F
ODELL 4ENE       N/A     77  63  62 E5        30.19S
PADUCAH 10SW     N/A     82  65  56 NE10      30.19F
POST 1NE         N/A     88  61  40 E13       30.18F
RRING SPRGS 3N   N/A     80  65  58 NE10      30.22F
SEYMOUR 3NW      N/A     80  61  52 NE8       30.15F
SPUR 1W          N/A     84  61  45 E10       30.19S
WEINERT 2NNE     N/A     86  66  50 E8        30.15F
WHITE RVR 6NE    N/A     86  64  47 E12       30.20F
$$

TXZ052-054-060>062-072-078-127-140-154-169-290000-
TEXAS TECH WEST TEXAS MESONET/PERMIAN BASIN/
CONCHO VALLEY/BIG COUNTRY/EDWARDS PLATEAU

CITY           SKY/WX    TMP DP  RH WIND       PRES   REMARKS
COYANOSA 2N      N/A    101  54  20 E15       30.07F HX  99
JUNCTION 1SSW    N/A     98  58  26 SE7       30.07F HX  98
MERTZON 3NNE     N/A     98  60  28 E12       30.10S HX  98
SAN ANGELO 7NW   N/A     99  53  21 E12       30.09S HX  96
STRLNG CT 4WSW   N/A     92  66  42 NE18      30.13S
ST LAWRNCE 5SW   N/A     93  54  26 E12       30.12F
SWEETWATR 11SW   N/A     86  66  51 E18       30.18F
WALL 1E          N/A     97  58  27 NE13      30.09F HX  96
$$

TXZ055-058-074-075-080-082-290000-
TEXAS TECH WEST TEXAS MESONET/FAR WEST/SOUTHWEST MOUNTAINS/TRANS PECOS

CITY           SKY/WX    TMP DP  RH WIND       PRES   REMARKS
PRSMN GAP BBNP   N/A     97  54  23 E14       30.06F HX  95
GUADLPE MTN NP   N/A     82  52  34 E9        30.32F
$$



USA.gov is the U.S. government's official web portal to all federal, state and local government web resources and services.